Regional Weather Roundup
Issued by NWS

Home | Current Version | Previous Version | Graphics & Text | Print | Product List | Glossary On
Versions: 1 2 3 4 5 6 7 8 9 10 11 12 13 14 15 16 17 18 19 20 21 22 23 24 25 26 27 28 29 30 31 32 33 34 35 36 37 38 39 40 41 42 43 44 45 46 47 48 49 50
000
ASUS43 KLMK 032002
RWRKY
KENTUCKY REGIONAL WEATHER ROUNDUP
NATIONAL WEATHER SERVICE LOUISVILLE KY
400 PM EDT MON AUG 03 2015

NOTE "FAIR" INDICATES FEW OR NO CLOUDS BELOW 12,000 FEET
WITH NO SIGNIFICANT WEATHER AND/OR OBSTRUCTIONS TO VISIBILITY.

KYZ001>023-026-027-061>063-070>075-032100-
WESTERN AND SOUTH CENTRAL KENTUCKY

CITY           SKY/WX    TMP DP  RH WIND       PRES   REMARKS
PADUCAH        SUNNY     93  71  48 W10       29.89F HX 100
HENDERSON      SUNNY     91  73  55 SW10      29.87R HX 100
OWENSBORO      SUNNY     93  72  50 W8        29.88F HX 100
HOPKINSVILLE   SUNNY     91  72  53 W10       29.91S HX  98
BOWLING GREEN  SUNNY     94  68  42 W10       29.89F HX  98
GLASGOW        NOT AVBL
$$

KYZ024-025-028>034-038-045-046-053-032100-
NORTH CENTRAL KENTUCKY

CITY           SKY/WX    TMP DP  RH WIND       PRES   REMARKS
LOUISVILLE/SDF MOSUNNY   92  70  48 SW17G28   29.85F HX  97
LOUISVILLE/LOU MOSUNNY   92  69  47 W10       29.86F HX  97
FORT KNOX      SUNNY     91  69  49 SW10G17   29.87S HX  95
$$

KYZ035>037-039>044-047>052-055>060-089>105-032100-
NORTHEAST KENTUCKY

CITY           SKY/WX    TMP DP  RH WIND       PRES   REMARKS
LEXINGTON      SUNNY     88  70  55 SW10      29.88F HX  93
COVINGTON      MOSUNNY   84  67  56 SW10G18   29.87S
FRANKFORT      SUNNY     88  69  53 SW13      29.87F HX  92
$$

KYZ054-064>069-076>088-106>120-032100-
SOUTHEAST KENTUCKY

CITY           SKY/WX    TMP DP  RH WIND       PRES   REMARKS
JACKSON        SUNNY     87  68  52 CALM      29.94F HX  90
LONDON         MOSUNNY   88  64  44 SW10      29.94F
SOMERSET       NOT AVBL
MIDDLESBORO    MOSUNNY   87  67  51 S6        29.96F HX  90
MONTICELLO     CLEAR     90  71  53 CALM      29.96F HX  96
$$




USA.gov is the U.S. government's official web portal to all federal, state and local government web resources and services.